Location: Corte Bragagnani
(45.3000°N, 11.1000°E)
Time: 23:45:11
(UTC+00:00)

CZ-4C R/B - Pass Details

Date: 09 April 2020
Orbit: 637 x 1365 km, 63.4° (Epoch: 04 June)

Event Time Altitude Azimuth Distance (km) Brightness Sun altitude
Rises 19:02:00 0° 319° (NW) 3,616 6.8 -12.1°
Reaches altitude 10° 19:05:03 10° 334° (NNW) 2,796 5.7 -12.6°
Maximum altitude 19:10:13 23° 25° (NNE) 2,193 4.4 -13.4°
Drops below altitude 10° 19:16:02 10° 74° (ENE) 3,188 4.8 -14.3°
Enters shadow 19:16:36 - 77° (ENE) 3,339 4.8 -14.4°
